Location: *
(50.6089°N, 2.2719°E)
Time: 04:23:27
(UTC+00:00)

STARLINK-80 - Pass Details

Date: 18 October 2019
Orbit: 494 x 496 km, 53.0° (Epoch: 21 November)

Event Time Altitude Azimuth Distance (km) Brightness Sun altitude
Rises 18:35:02 0° 279° (W) 2,585 8.9 -16.8°
Reaches altitude 10° 18:37:14 10° 283° (WNW) 1,701 7.4 -17.2°
Maximum altitude 18:41:02 60° 4° (N) 576 3.6 -17.8°
Enters shadow 18:42:06 41° 63° (ENE) 730 3.8 -17.9°
